Weather History for Ostend, Belgium

Change the Weather History Date:

Wednesday, August 28, 2013

  Actual Average Record
Temperature  
Mean Temperature 64 °F -  
Max Temperature 69 °F 64 °F 75 °F (2005)
Min Temperature 59 °F 51 °F 46 °F (2001)
Growing Degree Days 14 (Base 50)    
Moisture  
Dew Point 58 °F    
Average Humidity 75    
Maximum Humidity 88    
Minimum Humidity 59    
Precipitation  
Precipitation 0.00 in - - ()
Sea Level Pressure  
Sea Level Pressure 30.15 in    
Wind  
Wind Speed 9 mph ()    
Max Wind Speed 16 mph    
Max Gust Speed -    
Visibility 8.7 miles    
Events      
Averages and records for this station are not official NWS values.
T = Trace of Precipitation, MM = Missing Value Source: Averaged Metar Reports

Daily Weather History Graph

Daily Weather History Graph

Search for Another Location

Airport:

Trip Planner

Search our weather history database for the weather conditions in past years. The results will help you decide how hot, cold, wet, or windy it might be!

Date:

Astronomy

Aug. 28, 2013 Rise Set
Actual Time 6:55 AM CEST 8:42 PM CEST
Civil Twilight 6:20 AM CEST 9:17 PM CEST
Nautical Twilight 5:36 AM CEST 10:01 PM CEST
Astronomical Twilight 4:48 AM CEST 10:49 PM CEST
Moon No Moon Rise 3:25 PM CEST (8/28)
Length of Visible Light 14h 57m
Length of Day
13h 47m
Waning Gibbous, 50% of the Moon is Illuminated
Aug 28
Waning Gibbous
Sep 5
New
Sep 12
First Quarter
Sep 19
Full
Sep 27
Last Quarter

Hourly Weather History & Observations

Time (CEST) Temp. Dew Point Humidity Pressure Visibility Wind Dir Wind Speed Gust Speed Precip Events Conditions
12:00 AM 63 °F 58 °F 77% 30.09 in 12 mi NNE 8.9 mph - -   Scattered Clouds
12:20 AM 62.6 °F 57.2 °F 82% 30.06 in - NNE 8.1 mph - N/A   Clear
12:50 AM 64.4 °F 57.2 °F 77% 30.06 in - NNE 8.1 mph - N/A   Clear
1:00 AM 64 °F 57 °F 72% 30.09 in 11 mi NNE 8.9 mph - -   Scattered Clouds
1:20 AM 64.4 °F 57.2 °F 77% 30.06 in - NNE 9.2 mph - N/A   Clear
1:50 AM 64.4 °F 57.2 °F 77% 30.06 in - NNE 9.2 mph - N/A   Clear
2:00 AM 64 °F 58 °F 75% 30.09 in 11 mi NNE 8.9 mph - -   Scattered Clouds
2:20 AM 64.4 °F 59.0 °F 83% 30.06 in - NNE 9.2 mph - N/A   Clear
2:50 AM 64.4 °F 57.2 °F 77% 30.06 in - NNE 9.2 mph - N/A   Clear
3:00 AM 64 °F 58 °F 74% 30.09 in 11 mi NNE 8.9 mph - -   Scattered Clouds
3:20 AM 64.4 °F 57.2 °F 77% 30.09 in - North 10.4 mph - N/A   Clear
3:50 AM 64.4 °F 57.2 °F 77% 30.09 in - North 11.5 mph - N/A   Clear
4:00 AM 64 °F 56 °F 70% 30.10 in 11 mi North 11.2 mph - -   Scattered Clouds
4:20 AM 62.6 °F 57.2 °F 82% 30.09 in - NNE 9.2 mph - N/A   Clear
4:50 AM 62.6 °F 55.4 °F 77% 30.09 in - NNE 10.4 mph - N/A   Clear
5:00 AM 63 °F 56 °F 70% 30.11 in 11 mi NNE 8.9 mph - -   Partly Cloudy
5:20 AM 62.6 °F 55.4 °F 77% 30.09 in - NNE 10.4 mph - N/A   Clear
5:50 AM 62.6 °F 53.6 °F 72% 30.09 in - NNE 11.5 mph - N/A   Clear
6:00 AM 63 °F 54 °F 65% 30.11 in 11 mi NNE 11.2 mph - -   Partly Cloudy
6:20 AM 62.6 °F 55.4 °F 77% 30.09 in - NNE 10.4 mph - N/A   Clear
6:50 AM 62.6 °F 57.2 °F 82% 30.12 in - NNE 12.7 mph - N/A   Clear
7:20 AM 62.6 °F 55.4 °F 77% 30.12 in - NNE 11.5 mph - N/A   Clear
7:50 AM 62.6 °F 55.4 °F 77% 30.12 in 6.2 mi NNE 11.5 mph - N/A   Partly Cloudy
8:00 AM 63 °F 56 °F 72% 30.14 in 11 mi NNE 11.2 mph - -   Scattered Clouds
8:20 AM 64.4 °F 57.2 °F 77% 30.12 in 6.2 mi NNE 11.5 mph - N/A   Partly Cloudy
8:50 AM 64.4 °F 57.2 °F 77% 30.15 in 6.2 mi NNE 10.4 mph - N/A   Partly Cloudy
9:00 AM 65 °F 57 °F 69% 30.16 in 11 mi NNE 11.2 mph - -   Scattered Clouds
9:20 AM 64.4 °F 57.2 °F 77% 30.15 in 6.2 mi North 12.7 mph - N/A   Partly Cloudy
9:50 AM 66.2 °F 57.2 °F 73% 30.15 in 6.2 mi North 13.8 mph - N/A   Partly Cloudy
10:00 AM 65 °F 57 °F 69% 30.18 in 11 mi North 13.4 mph - -   Scattered Clouds
10:20 AM 66.2 °F 57.2 °F 73% 30.18 in 6.2 mi North 13.8 mph - N/A   Partly Cloudy
10:50 AM 66.2 °F 55.4 °F 68% 30.18 in 6.2 mi North 15.0 mph - N/A   Partly Cloudy
11:00 AM 66 °F 55 °F 59% 30.19 in 11 mi North 15.7 mph - -   Scattered Clouds
11:20 AM 66.2 °F 55.4 °F 68% 30.18 in 6.2 mi North 12.7 mph - N/A   Partly Cloudy
11:50 AM 68.0 °F 57.2 °F 68% 30.18 in 6.2 mi North 12.7 mph - N/A   Partly Cloudy
12:00 PM 67 °F 58 °F 64% 30.19 in 11 mi North 13.4 mph - -   Scattered Clouds
12:20 PM 68.0 °F 59.0 °F 73% 30.18 in 6.2 mi North 11.5 mph - N/A   Partly Cloudy
12:50 PM 68.0 °F 59.0 °F 73% 30.18 in 6.2 mi North 10.4 mph - N/A   Scattered Clouds
1:00 PM 68 °F 59 °F 67% 30.20 in 16 mi North 5.8 mph - -   Partly Cloudy
1:20 PM 68.0 °F 59.0 °F 73% 30.18 in 6.2 mi North 11.5 mph - N/A   Scattered Clouds
1:50 PM 68.0 °F 59.0 °F 73% 30.18 in 6.2 mi North 11.5 mph - N/A   Scattered Clouds
2:00 PM 69 °F 59 °F 63% 30.19 in 16 mi North 11.2 mph - -   Partly Cloudy
2:20 PM 68.0 °F 59.0 °F 73% 30.18 in 6.2 mi North 13.8 mph - N/A   Scattered Clouds
2:50 PM 69.8 °F 60.8 °F 73% 30.18 in 6.2 mi North 11.5 mph - N/A   Scattered Clouds
3:00 PM 69 °F 60 °F 66% 30.19 in 16 mi North 11.2 mph - -   Partly Cloudy
3:20 PM 68.0 °F 59.0 °F 73% 30.18 in 6.2 mi North 11.5 mph - N/A   Scattered Clouds
3:50 PM 68.0 °F 59.0 °F 73% 30.18 in 6.2 mi North 11.5 mph - N/A   Scattered Clouds
4:20 PM 68.0 °F 59.0 °F 73% 30.18 in 6.2 mi North 11.5 mph - N/A   Scattered Clouds
4:50 PM 66.2 °F 59.0 °F 78% 30.18 in 6.2 mi North 12.7 mph - N/A   Scattered Clouds
5:00 PM 67 °F 59 °F 68% 30.20 in 16 mi North 13.4 mph - -   Partly Cloudy
5:20 PM 68.0 °F 59.0 °F 73% 30.18 in 6.2 mi North 12.7 mph - N/A   Scattered Clouds
5:50 PM 68.0 °F 59.0 °F 73% 30.18 in 6.2 mi North 11.5 mph - N/A   Scattered Clouds
6:00 PM 67 °F 59 °F 68% 30.20 in 16 mi North 11.2 mph - -   Partly Cloudy
6:20 PM 66.2 °F 59.0 °F 78% 30.18 in 6.2 mi North 10.4 mph - N/A   Scattered Clouds
6:50 PM 66.2 °F 59.0 °F 78% 30.18 in 6.2 mi North 11.5 mph - N/A   Partly Cloudy
7:00 PM 66 °F 59 °F 72% 30.20 in 16 mi North 5.8 mph - -   Scattered Clouds
7:20 PM 66.2 °F 59.0 °F 78% 30.18 in 6.2 mi North 10.4 mph - N/A   Partly Cloudy
7:50 PM 64.4 °F 59.0 °F 83% 30.18 in 6.2 mi North 10.4 mph - N/A   Partly Cloudy
8:00 PM 65 °F 59 °F 76% 30.20 in 16 mi North 8.9 mph - -   Scattered Clouds
8:20 PM 64.4 °F 59.0 °F 83% 30.18 in 6.2 mi North 9.2 mph - N/A   Scattered Clouds
8:50 PM 64.4 °F 59.0 °F 83% 30.18 in 6.2 mi North 9.2 mph - N/A   Scattered Clouds
9:00 PM 64 °F 59 °F 78% 30.21 in 9 mi North 8.9 mph - -   Partly Cloudy
9:20 PM 62.6 °F 59.0 °F 88% 30.18 in 6.2 mi North 8.1 mph - N/A   Scattered Clouds
9:50 PM 62.6 °F 57.2 °F 82% 30.21 in 6.2 mi NNE 8.1 mph - N/A   Scattered Clouds
10:20 PM 62.6 °F 57.2 °F 82% 30.18 in 6.2 mi NNE 6.9 mph - N/A   Scattered Clouds
10:50 PM 60.8 °F 57.2 °F 88% 30.21 in 6.2 mi NNE 5.8 mph - N/A   Partly Cloudy
11:00 PM 61 °F 57 °F 82% 30.21 in 11 mi NNE 6.7 mph - -   Scattered Clouds
11:20 PM 60.8 °F 57.2 °F 88% 30.21 in 6.2 mi NE 5.8 mph - N/A   Partly Cloudy
11:50 PM 59.0 °F 55.4 °F 88% 30.21 in 6.2 mi ENE 3.5 mph - N/A   Partly Cloudy